Theta_e
351 351 351 351 350 350 350 349 346 343 341 338 333 329 326 323 322 321 319 318 317 315 315 314 314 315 317 317 315 314 311 310 309 311 309 308 310 311 312 314 314 319 322
347 345 344 344 344 344 344 341 338 334 333 328 323 321 319 316 316 316 313 310 309 306 304 308 310 312 314 311 310 309 308 307 306 306 307 307 307 308 306 307 308 308 309
340 339 336 336 335 332 333 332 329 324 318 317 317 316 314 313 312 309 308 308 307 306 304 307 312 311 309 309 308 307 307 306 305 305 305 305 305 305 305 305 305 305 306
332 330 327 325 323 320 319 317 316 315 315 314 312 311 309 308 308 307 307 305 305 305 310 310 309 309 308 307 306 304 303 303 304 304 304 305 305 305 305 305 305 305 305
325 322 319 317 317 317 315 314 314 314 313 311 310 308 308 307 306 305 305 308 310 311 309 308 307 306 305 304 303 302 301 303 304 305 304 304 305 304 305 304 304 304 304
319 317 316 315 315 314 314 313 312 311 310 309 307 306 305 304 303 306 307 307 307 307 308 308 305 304 304 303 302 301 302 303 304 304 304 303 303 303 304 304 304 304 304
317 316 315 314 313 313 312 311 309 308 307 306 305 304 301 301 304 305 305 305 305 306 306 306 302 303 302 302 302 302 303 303 303 303 302 303 303 304 303 303 303 303 303
315 313 312 312 311 309 308 308 308 307 306 305 303 301 300 300 303 304 304 304 304 305 304 302 302 301 301 302 302 302 302 301 301 301 303 303 303 304 303 303 303 303 303
311 310 310 309 308 308 308 308 307 307 305 303 302 300 300 299 300 301 302 302 302 302 301 301 300 301 301 302 301 301 300 300 300 302 302 302 302 302 302 302 303 303 302
308 308 308 308 308 308 308 307 306 305 303 302 301 300 299 299 298 298 299 300 300 301 300 299 300 300 300 300 301 300 299 298 297 298 299 299 298 298 298 298 298 299 301
307 308 308 308 308 307 306 306 305 304 303 302 301 298 298 298 297 297 298 298 299 299 299 299 300 300 299 298 297 296 296 295 295 295 294 294 294 295 295 295 295 297 297
307 306 306 306 306 305 305 305 304 304 303 302 299 297 297 297 297 297 297 298 299 299 299 298 297 298 297 296 295 293 293 293 293 293 293 293 292 292 293 293 293 294 294
306 305 304 304 304 304 305 304 304 304 304 302 298 297 295 295 296 296 297 298 298 298 297 296 296 296 294 292 291 292 292 292 292 291 292 292 292 292 292 293 293 294 293
303 303 303 303 302 301 301 302 302 302 301 301 299 295 294 295 295 295 297 298 297 296 295 295 294 293 292 292 292 292 292 292 292 291 292 292 292 291 291 292 292 293 293
302 301 300 299 299 298 297 297 299 298 299 298 296 295 295 294 294 294 296 296 295 295 293 292 293 293 292 292 292 292 291 291 291 291 291 291 291 291 291 292 292 293 293
301 299 297 296 294 294 293 293 293 295 296 295 295 295 294 294 294 294 295 295 293 293 293 293 292 292 291 291 290 290 290 290 290 291 291 290 291 291 291 292 293 294 294
300 299 297 295 294 293 292 292 292 292 293 293 293 294 294 294 294 293 294 293 293 293 292 292 292 290 289 289 289 288 289 289 290 290 290 290 290 291 291 292 294 295 296
301 300 298 296 295 294 294 293 293 293 292 292 292 293 293 292 292 292 293 293 293 292 292 291 290 288 287 287 287 287 288 289 288 289 289 289 289 290 291 293 294 296 298
301 301 300 299 297 296 295 295 295 294 293 293 293 292 293 293 293 293 293 293 292 291 290 289 288 286 286 286 286 287 287 287 287 287 288 289 289 289 291 292 294 297 297
300 301 301 301 300 298 298 298 297 296 295 295 295 294 294 294 294 294 293 292 291 290 289 287 285 284 284 284 285 286 287 287 287 288 289 289 290 290 290 291 294 297 297
299 299 299 299 298 298 297 297 296 295 296 295 293 295 294 294 294 293 292 291 291 289 288 287 284 283 283 283 284 285 285 286 286 287 288 289 289 290 291 292 295 297 296
299 299 299 299 299 298 297 297 293 293 294 292 293 294 294 293 293 292 291 290 290 289 288 287 285 283 282 282 283 284 284 284 285 286 288 289 290 290 290 292 293 295 295
298 299 299 299 299 298 297 297 294 293 293 293 293 293 293 292 292 291 290 289 289 288 287 287 286 283 283 282 282 282 283 283 284 285 286 287 289 289 290 291 292 293 292
298 299 299 299 299 299 298 298 296 294 293 293 292 292 291 291 291 290 289 288 288 287 287 287 286 282 282 282 282 282 282 282 283 285 286 287 288 289 290 291 292 292 291
298 298 297 298 298 296 294 294 294 293 293 292 291 290 290 290 289 289 289 288 287 287 286 286 285 282 282 282 282 282 282 283 283 284 287 287 288 289 289 290 290 291 290
297 297 297 294 294 294 294 293 292 292 291 290 290 290 289 288 288 288 287 287 286 286 285 285 284 281 281 281 281 282 282 283 283 284 285 286 287 287 287 288 289 291 290
Wind_Speed
34 35 35 33 33 31 29 28 28 26 22 24 24 22 19 19 18 18 16 12 10 9 9 10 10 8 7 8 8 8 12 12 2 6 16 20 19 18 17 16 17 13 14
39 38 36 36 36 37 35 31 29 30 29 28 26 23 20 18 16 13 11 9 8 10 10 8 9 7 6 6 8 11 13 14 11 6 12 20 19 19 21 21 21 20 20
42 42 38 39 38 37 39 35 35 35 32 28 25 22 18 15 13 11 9 8 9 9 9 8 7 7 9 9 11 12 14 15 14 10 12 17 19 22 24 24 24 24 23
40 41 39 37 39 41 41 38 36 32 29 25 22 19 16 13 11 9 10 11 11 10 13 15 14 12 11 11 13 14 16 16 14 13 12 14 16 21 20 22 26 28 29
41 38 38 41 41 41 37 35 31 28 24 21 20 17 14 12 11 11 12 15 17 17 12 13 11 11 12 12 13 15 14 14 15 14 13 13 14 18 19 22 22 26 25
40 39 37 38 41 37 34 31 28 26 23 20 18 16 14 15 12 14 15 14 11 10 8 3 10 11 13 13 15 11 10 12 12 10 9 11 14 17 17 18 18 18 5
41 36 36 38 38 31 29 27 25 25 22 22 19 17 19 17 15 14 13 12 10 9 8 8 9 11 12 15 14 11 10 9 11 11 12 13 13 17 20 19 18 17 14
35 34 33 38 33 28 26 24 24 25 24 23 21 20 22 21 15 13 12 13 16 16 14 14 13 14 16 16 14 15 14 16 16 13 12 14 15 17 16 16 21 24 20
32 31 33 35 31 27 25 26 26 25 23 22 21 21 22 22 14 10 9 13 15 17 15 15 15 16 16 13 14 14 18 21 19 15 12 14 15 13 15 19 17 19 19
31 33 32 30 28 27 28 27 25 22 23 22 22 21 20 21 18 16 13 12 15 11 10 12 14 14 17 15 13 16 20 22 23 23 19 17 18 19 16 14 20 19 19
34 34 31 29 29 27 26 23 22 23 23 23 21 18 18 16 14 12 13 14 11 10 8 10 12 11 15 16 16 17 15 18 19 19 21 20 20 20 19 19 17 17 20
34 33 31 27 26 24 22 21 20 21 22 21 20 17 14 12 9 9 10 12 12 11 12 15 17 16 15 17 18 15 16 19 19 18 17 18 21 22 24 25 21 20 21
33 31 29 27 24 21 20 18 16 14 17 20 19 14 13 12 12 11 11 10 12 13 14 13 12 14 15 18 19 18 18 19 22 22 19 20 22 24 25 24 25 25 26
30 27 26 27 25 20 20 19 20 21 20 20 19 13 11 13 14 13 12 11 13 13 13 14 15 17 18 20 21 23 21 20 20 19 18 20 23 24 24 25 26 30 29
26 25 24 22 22 19 18 17 17 14 14 16 14 12 14 14 15 14 15 14 14 11 14 20 21 21 22 23 25 25 23 23 24 18 18 21 22 23 24 26 24 24 17
21 21 23 22 21 22 23 21 18 15 14 14 14 14 16 15 13 11 12 12 13 17 19 19 19 20 22 22 25 25 25 24 23 20 21 21 21 24 25 27 23 20 20
24 23 22 22 24 24 23 23 23 18 16 15 14 16 15 15 12 11 16 15 13 13 17 18 21 21 22 22 24 24 24 24 22 22 22 22 23 24 25 25 25 23 24
21 19 22 23 21 19 20 20 19 20 21 17 18 17 16 16 17 18 17 16 18 20 22 22 22 22 22 23 23 23 24 26 27 26 27 26 25 24 25 25 25 25 27
16 14 16 18 19 18 19 17 16 17 17 16 14 15 14 13 13 13 15 20 22 23 22 22 21 22 22 22 22 22 23 26 27 28 29 30 30 27 26 26 25 26 27
11 13 16 18 20 19 17 15 14 13 14 12 10 11 9 8 11 8 11 17 20 20 21 22 21 21 21 22 23 23 25 27 29 30 31 32 33 32 29 29 26 26 27
12 16 21 21 20 20 19 15 13 14 14 11 11 14 13 16 17 17 17 17 18 17 20 21 21 22 22 23 24 24 25 26 28 29 30 31 32 33 34 30 25 24 26
12 14 15 16 17 16 17 17 15 18 17 16 18 19 17 16 16 17 18 17 16 16 17 19 21 21 21 22 24 24 25 26 27 27 28 29 31 33 32 31 29 27 28
12 10 13 12 20 18 19 17 16 18 21 23 21 19 18 17 16 17 17 16 15 15 15 17 19 20 20 21 22 23 24 24 24 23 25 27 29 31 32 32 30 27 29
8 9 8 14 16 17 18 20 20 16 22 23 21 19 19 19 19 17 16 15 14 14 14 16 19 20 19 20 22 23 22 21 21 20 20 24 27 29 31 33 30 28 29
8 6 7 19 20 24 30 31 30 28 25 23 22 20 19 18 18 18 17 15 13 12 12 14 17 19 19 20 21 22 22 21 21 20 19 22 25 28 30 31 29 28 29
8 5 16 26 29 32 32 32 31 29 27 25 22 19 17 15 15 14 14 13 11 10 11 12 14 17 18 20 21 21 22 22 22 23 21 20 24 26 29 30 28 26 26
Wind_Direction
146 152 151 152 155 156 150 149 146 140 136 133 126 122 120 111 109 106 99 90 81 66 52 40 38 23 26 19 20 21 27 25 351 319 332 340 357 3 4 10 17 0 333
136 134 132 139 143 139 137 136 136 130 131 130 128 122 115 107 104 97 88 71 52 33 23 8 4 14 45 41 36 33 27 22 13 321 335 350 356 350 350 346 345 343 341
127 128 126 128 128 125 130 133 131 130 126 124 124 118 111 104 95 86 70 48 26 10 9 8 40 85 72 55 40 26 8 360 3 355 343 345 349 356 354 354 350 343 334
120 120 117 118 121 121 125 127 125 126 124 120 114 113 109 97 77 52 28 18 19 37 70 83 83 74 59 37 21 8 354 348 352 347 340 333 343 350 352 353 343 343 339
117 115 115 118 120 123 124 120 122 121 119 118 117 109 93 75 53 40 50 62 62 87 89 86 70 65 48 28 16 356 351 354 352 346 341 340 345 350 347 336 330 330 336
116 115 116 116 119 123 121 119 117 119 120 118 106 93 81 72 70 79 79 68 66 69 72 91 67 54 28 12 5 6 12 12 23 15 348 340 327 337 339 337 332 330 337
112 114 113 116 117 120 119 117 117 120 122 110 99 92 81 79 87 84 81 77 76 71 74 94 61 36 16 15 15 25 30 19 3 347 336 341 330 341 337 335 335 327 310
108 108 111 114 117 117 115 116 121 125 117 110 102 94 82 77 89 89 94 86 80 82 86 67 47 26 19 19 28 31 23 12 1 355 344 341 338 339 342 331 323 317 312
105 107 111 118 117 119 121 126 126 121 115 108 102 93 83 70 80 81 89 90 96 86 69 50 34 26 21 25 30 17 7 7 8 10 5 360 354 347 339 335 327 320 312
106 109 116 119 122 122 128 127 122 117 114 111 103 89 79 73 65 72 77 97 88 85 59 38 32 34 31 27 23 15 7 1 355 353 351 348 336 336 342 342 332 320 316
109 113 115 117 118 121 120 123 123 122 119 113 106 93 83 69 65 66 72 69 72 67 47 36 24 31 40 40 32 23 15 356 0 356 347 346 341 336 329 327 322 309 310
107 108 111 113 115 118 122 126 129 132 123 121 118 104 76 58 69 76 68 74 78 77 66 61 62 62 37 20 11 14 17 16 7 354 346 342 337 333 332 332 327 311 304
110 107 112 118 119 120 127 131 125 127 143 140 134 112 78 72 75 77 84 86 81 79 83 77 58 51 35 32 36 32 26 13 4 355 343 335 332 330 332 332 331 330 320
115 119 121 118 117 115 112 114 118 123 129 133 135 114 93 89 79 75 83 99 97 86 76 67 61 61 52 37 26 21 16 6 352 351 340 336 341 340 337 340 334 338 334
120 123 121 119 119 118 110 105 115 117 134 132 124 125 116 99 83 73 84 91 85 82 83 77 64 46 30 18 17 21 18 12 9 359 350 346 343 341 338 341 335 329 318
123 126 127 125 122 117 117 104 99 108 113 107 108 117 105 107 101 90 96 94 92 88 73 58 44 32 31 27 23 18 16 14 8 357 353 348 342 339 335 336 334 330 321
133 129 130 128 123 126 123 120 112 107 108 106 113 106 102 111 112 94 107 105 85 59 49 47 58 48 33 32 24 19 13 12 4 2 354 346 343 340 338 336 336 338 332
138 136 137 139 135 132 134 133 130 130 125 118 108 113 115 105 102 100 95 80 69 73 74 63 55 42 37 31 26 20 15 16 12 8 5 359 351 341 336 338 337 339 338
131 143 152 152 154 151 150 143 139 136 135 127 126 126 124 117 103 93 76 68 85 82 70 58 49 41 35 31 26 21 17 15 12 9 8 6 2 350 339 336 333 340 343
127 143 151 156 163 160 159 157 160 158 149 146 152 154 138 113 112 113 85 80 88 82 68 58 47 40 34 30 27 21 17 15 14 13 11 9 8 3 349 341 338 340 345
138 141 146 146 151 153 153 147 153 157 160 148 135 148 121 107 101 97 97 84 89 81 68 57 46 39 33 27 26 23 18 14 12 10 10 9 9 6 3 354 344 346 347
155 156 156 159 161 161 156 158 148 139 141 127 123 122 119 107 102 96 101 89 88 80 64 55 47 40 33 28 23 21 17 12 10 7 8 10 12 11 4 4 1 357 354
177 175 175 174 176 172 165 170 159 132 130 125 121 112 106 103 100 98 105 95 87 79 64 49 43 38 33 30 28 24 18 13 9 7 5 9 14 12 11 10 8 3 0
179 185 200 187 175 176 177 183 180 152 135 128 120 114 105 98 97 97 102 98 90 77 60 46 38 35 31 29 28 26 23 18 14 14 15 18 18 20 19 17 15 11 5
170 155 158 167 170 153 143 140 141 140 134 128 123 117 108 105 99 96 101 99 83 70 55 42 35 31 30 28 26 24 21 21 23 21 22 25 26 27 23 20 14 17 12
183 192 163 144 139 142 141 137 136 136 131 125 121 120 119 111 102 101 100 97 84 62 48 39 31 28 27 26 24 22 21 21 24 24 25 27 27 28 27 22 16 20 16